Weather History for Lamoni, IA

Change the Weather History Date:

Friday, September 5, 2014

  Actual Average Record
Temperature  
Mean Temperature 67 °F 69 °F  
Max Temperature 78 °F 80 °F 96 °F (1990)
Min Temperature 56 °F 59 °F 46 °F (2008)
Degree Days  
Heating Degree Days 0 1  
Month to date heating degree days 0 5  
Since 1 July heating degree days 7 13  
Cooling Degree Days 2 5  
Month to date cooling degree days 39 29  
Year to date cooling degree days 856 867  
Growing Degree Days 18 (Base 50)    
Moisture  
Dew Point 60 °F    
Average Humidity 85    
Maximum Humidity 97    
Minimum Humidity 73    
Precipitation  
Precipitation 0.45 in 0.16 in 1.91 in (1993)
Month to date precipitation 0.46 0.79  
Sea Level Pressure  
Sea Level Pressure 30.10 in    
Wind  
Wind Speed 10 mph (North)    
Max Wind Speed 25 mph    
Max Gust Speed 32 mph    
Visibility 8 miles    
Events Rain , Thunderstorm    
T = Trace of Precipitation, MM = Missing Value Source: NWS Daily Summary

Daily Weather History Graph

Daily Weather History Graph

Search for Another Location

Airport:

Trip Planner

Search our weather history database for the weather conditions in past years. The results will help you decide how hot, cold, wet, or windy it might be!

Date:

Astronomy

Sep. 05, 2014 Rise Set
Actual Time 6:46 AM CDT 7:41 PM CDT
Civil Twilight 6:18 AM CDT 8:08 PM CDT
Nautical Twilight 5:45 AM CDT 8:41 PM CDT
Astronomical Twilight 5:11 AM CDT 9:16 PM CDT
Moon 5:11 PM CDT (9/5) 2:40 AM CDT (9/5)
Length of Visible Light 13h 50m
Length of Day
12h 54m
Waxing Gibbous, 84% of the Moon is Illuminated
Sep 5
Waxing Gibbous
Sep 8
Full
Sep 15
Last Quarter
Sep 24
New
Oct 1
First Quarter

Hourly Weather History & Observations

Time (CDT) Temp. Dew Point Humidity Pressure Visibility Wind Dir Wind Speed Gust Speed Precip Events Conditions
12:53 AM 79.0 °F 70.0 °F 74% 29.91 in 10.0 mi SW 10.4 mph - N/A   Mostly Cloudy
1:53 AM 77.0 °F 70.0 °F 79% 29.92 in 10.0 mi WSW 8.1 mph - N/A   Mostly Cloudy
2:53 AM 75.0 °F 69.1 °F 82% 29.91 in 10.0 mi SW 6.9 mph - N/A   Clear
3:53 AM 72.0 °F 68.0 °F 87% 29.95 in 10.0 mi NNW 6.9 mph - N/A   Clear
4:53 AM 71.1 °F 69.1 °F 93% 29.96 in 10.0 mi North 4.6 mph - N/A   Clear
5:31 AM 71.1 °F 70.0 °F 96% 29.99 in 9.0 mi North 6.9 mph - N/A   Partly Cloudy
5:49 AM 71.6 °F 69.8 °F 94% 30.00 in 9.0 mi North 10.4 mph - N/A   Mostly Cloudy
5:53 AM 71.1 °F 69.1 °F 93% 29.98 in 10.0 mi North 11.5 mph - N/A   Mostly Cloudy
6:53 AM 66.9 °F 63.0 °F 87% 30.04 in 10.0 mi NNW 15.0 mph 25.3 mph N/A   Overcast
7:24 AM 64.9 °F 60.1 °F 84% 30.09 in 10.0 mi North 19.6 mph 28.8 mph N/A   Overcast
7:53 AM 64.0 °F 57.0 °F 78% 30.06 in 10.0 mi North 19.6 mph 29.9 mph N/A   Overcast
8:16 AM 64.9 °F 57.0 °F 75% 30.07 in 10.0 mi NNE 18.4 mph - N/A   Mostly Cloudy
8:51 AM 64.4 °F 57.2 °F 77% 30.07 in 10.0 mi NNE 15.0 mph 21.9 mph N/A   Mostly Cloudy
8:53 AM 64.9 °F 57.0 °F 75% 30.05 in 10.0 mi NNE 11.5 mph - N/A   Mostly Cloudy
9:12 AM 64.9 °F 57.0 °F 75% 30.07 in 10.0 mi North 13.8 mph 23.0 mph N/A   Overcast
9:53 AM 66.0 °F 57.9 °F 75% 30.06 in 10.0 mi NNE 11.5 mph - N/A   Mostly Cloudy
11:53 AM 64.9 °F 57.0 °F 75% 30.14 in 10.0 mi NW 10.4 mph - N/A Thunderstorm Overcast
12:03 PM 64.4 °F 55.4 °F 73% 30.14 in 6.0 mi Variable 4.6 mph 25.3 mph N/A Rain , Thunderstorm Light Thunderstorms and Rain
12:07 PM 63.0 °F 57.0 °F 81% 30.15 in 1.8 mi NNW 12.7 mph - 0.05 in Rain , Thunderstorm Heavy Thunderstorms and Rain
12:14 PM 62.1 °F 57.9 °F 86% 30.14 in 2.5 mi NNW 10.4 mph - 0.10 in Rain , Thunderstorm Light Thunderstorms and Rain
12:16 PM 62.1 °F 57.9 °F 86% 30.14 in 5.0 mi NNW 12.7 mph 17.3 mph 0.10 in Rain , Thunderstorm Light Thunderstorms and Rain
12:26 PM 62.1 °F 57.9 °F 86% 30.13 in 10.0 mi North 10.4 mph - 0.10 in Thunderstorm Overcast
12:33 PM 62.1 °F 57.9 °F 86% 30.16 in 10.0 mi NW 9.2 mph - 0.10 in   Overcast
12:53 PM 62.1 °F 59.0 °F 90% 30.14 in 10.0 mi NW 9.2 mph - 0.10 in Thunderstorm Overcast
1:05 PM 62.1 °F 59.0 °F 90% 30.19 in 5.0 mi WNW 12.7 mph 31.1 mph 0.00 in Rain , Thunderstorm Light Thunderstorms and Rain
1:08 PM 61.0 °F 59.0 °F 93% 30.15 in 1.5 mi North 19.6 mph 31.1 mph 0.05 in Rain , Thunderstorm Heavy Thunderstorms and Rain
1:14 PM 60.1 °F 57.9 °F 93% 30.08 in 0.8 mi NNE 23.0 mph 29.9 mph 0.24 in Rain , Thunderstorm Heavy Thunderstorms and Rain
1:17 PM 60.1 °F 57.9 °F 93% 30.06 in 1.0 mi NNE 24.2 mph 29.9 mph 0.28 in Rain , Thunderstorm Heavy Thunderstorms and Rain
1:25 PM 60.1 °F 59.0 °F 96% 30.11 in 3.0 mi North 11.5 mph 26.5 mph 0.32 in Rain , Thunderstorm Light Thunderstorms and Rain
1:27 PM 61.0 °F 59.0 °F 93% 30.11 in 4.0 mi NNE 12.7 mph 26.5 mph 0.32 in Rain , Thunderstorm Light Rain
1:41 PM 62.1 °F 60.1 °F 93% 30.13 in 10.0 mi North 8.1 mph - 0.32 in Rain Light Rain
1:48 PM 62.6 °F 60.8 °F 94% 30.14 in 10.0 mi North 9.2 mph - 0.32 in   Overcast
1:53 PM 62.1 °F 60.1 °F 93% 30.12 in 10.0 mi North 9.2 mph - 0.32 in   Mostly Cloudy
2:16 PM 61.0 °F 55.9 °F 83% 30.13 in 10.0 mi NNE 11.5 mph - N/A   Mostly Cloudy
2:22 PM 62.1 °F 55.9 °F 80% 30.14 in 10.0 mi North 12.7 mph - N/A   Mostly Cloudy
2:53 PM 61.0 °F 57.0 °F 87% 30.14 in 10.0 mi North 9.2 mph - 0.00 in Rain Light Rain
3:53 PM 61.0 °F 59.0 °F 93% 30.12 in 7.0 mi North 6.9 mph - 0.03 in Rain Light Rain
5:53 PM 63.0 °F 59.0 °F 87% 30.14 in 10.0 mi NNW 11.5 mph - N/A   Overcast
6:53 PM 62.1 °F 57.0 °F 84% 30.13 in 10.0 mi North 6.9 mph - N/A   Overcast
7:53 PM 61.0 °F 55.9 °F 83% 30.16 in 10.0 mi NNW 12.7 mph - N/A   Mostly Cloudy
8:53 PM 60.1 °F 55.9 °F 86% 30.19 in 10.0 mi NNW 6.9 mph - N/A   Overcast
9:53 PM 60.1 °F 55.9 °F 86% 30.22 in 10.0 mi North 9.2 mph - N/A   Mostly Cloudy
10:53 PM 57.9 °F 54.0 °F 87% 30.22 in 10.0 mi North 9.2 mph - N/A   Partly Cloudy
11:53 PM 57.0 °F 54.0 °F 89% 30.23 in 10.0 mi North 5.8 mph - N/A   Clear